Location: Nairn
(57.5833°N, 3.8667°W)
Time: 08:39:24
(UTC+00:00)

Vanguard 2 - Pass Details

Date: 19 January 2022
Orbit: 552 x 2935 km, 32.9° (Epoch: 24 May)

Event Time Altitude Azimuth Distance (km) Brightness Sun altitude
Exits shadow 04:04:47 15° 192° (SSW) 5,190 11.4 -35.7°
Drops below altitude 10° 04:09:05 10° 178° (S) 5,503 11.7 -35.2°
Sets 04:15:04 0° 162° (SSE) 6,213 12.2 -34.4°
